Content
SEND FEEDBACK

Daily
Averages
Monthly
Summary
United States of America

NEW CARLISLE, OHIO


Home > North America > United States > Ohio
Elevation: 910 feet     Latitude: 39 56N     Longitude: 084 02W

WEATHER
 
SELECT A DAY
Number of Records: 209,556;   Date Range: 1/1/95 - 7/7/14
 
SHARE

PRINT THIS DATA

[ ← Previous Day ]
WEATHER ALMANAC - JANUARY 31, 2013
[ Next Day → ]
[ °C ]   °F
Weather ElementAverageHighLow
Temperature23.9 °F30.2 °F (1:39 am)14 °F (11:43 pm)
Dewpoint17.3 °F23 °F (1:39 am)6.8 °F (11:13 pm)
Humidity76.3 %93 % (3:43 pm)61 % (1:56 pm)
Barometer29.84 in30.05 in (11:56 pm)29.58 in (1:39 am)
Wind Speed20.3 mph31.1 mph (1:39 am)
Wind Gust42.6 mph (2:17 am)
Weather ElementAverage
Visibility4.7 mi
Wind DirectionW (273.2 °)

Weather ElementTotal
Precipitation0.05 in
Heating Degree Days42.9 (Base 65)
Averaged from 65 records on January 31, 2013
WEATHER CONDITIONS BREAKOUT
WIND DIRECTION BREAKOUT
WEATHER BY HOUR - JANUARY 31, 2013
[ °C ]   °F
Local TimeTemperatureDewpointHumidityBarometerVisibilityWind DirectionWind SpeedGust SpeedPrecipitationEventsConditions
1:39 AM30.2 °F23.0 °F75 %29.58 in10.0 miWest (270°)31.1 mph38.0 mphOvercast
1:56 AM28.9 °F23.0 °F78 %29.61 in10.0 miWest (270°)29.9 mph39.1 mphOvercast
2:17 AM28.4 °F21.2 °F74 %29.61 in9.0 miWest (280°)24.2 mph42.6 mph0.00 inSnowLight Snow
2:56 AM28.0 °F19.9 °F72 %29.66 in9.0 miWest (270°)27.6 mph36.8 mph0.00 inOvercast
3:49 AM26.6 °F19.4 °F74 %29.67 in2.5 miWest (280°)20.7 mph39.1 mph0.00 inSnowLight Snow
3:54 AM26.6 °F19.4 °F74 %29.67 in2.5 miWest (270°)24.2 mph32.2 mph0.00 inSnowLight Snow
3:56 AM26.1 °F19.9 °F78 %29.68 in2.5 miWest (270°)27.6 mph32.2 mph0.00 inSnowLight Snow
4:13 AM24.8 °F19.4 °F80 %29.68 in1.8 miWest (270°)25.3 mph33.4 mph0.00 inSnowLight Snow
4:25 AM24.8 °F19.4 °F80 %29.68 in0.8 miWest (270°)23.0 mph38.0 mph0.00 inSnowLight Snow
4:31 AM24.8 °F19.4 °F80 %29.69 in2.0 miWest (270°)20.7 mph34.5 mph0.00 inSnowLight Snow
4:44 AM24.8 °F15.8 °F69 %29.69 in5.0 miWest (270°)28.8 mph40.3 mph0.00 inSnowLight Snow
4:56 AM24.1 °F15.1 °F69 %29.72 in9.0 miWest (270°)17.3 mph34.5 mph0.00 inSnowLight Snow
5:39 AM24.8 °F17.6 °F74 %29.70 in5.0 miWSW (250°)31.1 mph38.0 mph0.00 inSnowLight Snow
5:56 AM24.1 °F16.0 °F71 %29.74 in9.0 miWest (270°)21.9 mph35.7 mph0.00 inSnowLight Snow
6:56 AM24.1 °F14.0 °F65 %29.76 in10.0 miWest (260°)25.3 mph34.5 mph0.00 inOvercast
7:03 AM24.8 °F15.8 °F69 %29.74 in9.0 miWest (270°)29.9 mph35.7 mph0.00 inSnowLight Snow
7:56 AM21.9 °F14.0 °F72 %29.81 in8.0 miWest (280°)28.8 mph36.8 mph0.00 inSnowLight Snow
8:56 AM21.9 °F14.0 °F72 %29.84 in4.0 miWest (270°)18.4 mph27.6 mph0.00 inSnowLight Snow
8:58 AM21.2 °F15.8 °F80 %29.82 in1.8 miWest (270°)24.2 mph28.8 mph0.00 inSnowLight Snow
9:02 AM21.2 °F15.8 °F80 %29.82 in0.5 miWest (270°)19.6 mph28.8 mph0.00 inSnowSnow
9:08 AM21.2 °F15.8 °F80 %29.83 in4.0 miWest (270°)25.3 mph31.1 mph0.00 inSnowLight Snow
9:17 AM21.2 °F12.2 °F68 %29.83 in9.0 miWest (270°)21.9 mph35.7 mph0.00 inOvercast
9:56 AM23.0 °F12.0 °F63 %29.88 in10.0 miWest (260°)25.3 mph35.7 mph0.00 inOvercast
10:56 AM24.1 °F14.0 °F65 %29.90 in9.0 miWest (260°)20.7 mph33.4 mph0.00 inOvercast
11:41 AM24.8 °F17.6 °F74 %29.87 in2.0 miWSW (250°)20.7 mph0.00 inSnowLight Snow
11:44 AM24.8 °F17.6 °F74 %29.86 in1.5 miWSW (250°)20.7 mph0.00 inSnowLight Snow
11:56 AM24.1 °F19.0 °F81 %29.90 in1.2 miWSW (250°)19.6 mph0.00 inSnowLight Snow
12:06 PM24.8 °F19.4 °F80 %29.86 in3.0 miWSW (240°)20.7 mph29.9 mph0.00 inSnowLight Snow
12:22 PM26.6 °F17.6 °F69 %29.85 in7.0 miWSW (240°)18.4 mph27.6 mph0.00 inSnowLight Snow
12:56 PM27.0 °F17.1 °F66 %29.88 in9.0 miWSW (250°)23.0 mph34.5 mph0.00 inMostly Cloudy
1:56 PM28.0 °F16.0 °F61 %29.87 in9.0 miWSW (250°)25.3 mph34.5 mph0.00 inMostly Cloudy
2:13 PM26.6 °F17.6 °F69 %29.85 in1.5 miWSW (250°)25.3 mph35.7 mph0.00 inSnowLight Snow
2:17 PM28.4 °F19.4 °F69 %29.85 in6.0 miWSW (250°)24.2 mph32.2 mph0.00 inSnowLight Snow
2:34 PM26.6 °F19.4 °F74 %29.85 in1.0 miWest (260°)31.1 mph39.1 mph0.00 inSnowLight Snow
2:41 PM28.4 °F21.2 °F74 %29.85 in7.0 miWSW (250°)18.4 mph0.00 inSnowLight Snow
2:56 PM28.0 °F19.0 °F69 %29.88 in10.0 miWSW (240°)21.9 mph32.2 mph0.00 inMostly Cloudy
3:29 PM26.6 °F19.4 °F74 %29.85 in1.0 miWest (280°)21.9 mph35.7 mph0.00 inSnowLight Snow
3:31 PM26.6 °F19.4 °F74 %29.86 in0.8 miWNW (290°)20.7 mph35.7 mph0.00 inSnowLight Snow
3:43 PM24.8 °F23.0 °F93 %29.86 in1.0 miWNW (290°)13.8 mph0.00 inSnowLight Snow
3:45 PM24.8 °F23.0 °F93 %29.86 in4.0 miWest (280°)13.8 mph0.00 inSnowLight Snow
3:56 PM26.1 °F21.9 °F84 %29.89 in8.0 miWest (270°)11.5 mph0.00 inSnowLight Snow
4:21 PM26.6 °F21.2 °F80 %29.86 in4.0 miWNW (290°)11.5 mph0.00 inSnowLight Snow
4:56 PM25.0 °F19.9 °F81 %29.91 in4.0 miWest (280°)16.1 mph21.9 mph0.00 inSnowLight Snow
5:03 PM24.8 °F19.4 °F80 %29.86 in1.0 miWest (270°)17.3 mph0.00 inSnowLight Snow
5:33 PM24.8 °F19.4 °F80 %29.86 in0.5 miWest (260°)13.8 mph0.00 inSnowSnow
5:56 PM24.1 °F19.9 °F84 %29.91 in6.0 miWest (280°)10.4 mph0.01 inSnowLight Snow
6:15 PM24.8 °F21.2 °F86 %29.87 in1.0 miWest (270°)11.5 mph0.00 inSnowLight Snow
6:30 PM24.8 °F21.2 °F86 %29.88 in0.8 miWest (280°)10.4 mph0.01 inSnowLight Snow
6:33 PM24.8 °F21.2 °F86 %29.88 in1.0 miWest (280°)9.2 mph0.01 inSnowLight Snow
6:45 PM24.8 °F21.2 °F86 %29.89 in1.0 miWNW (290°)12.7 mph20.7 mph0.01 inSnowLight Snow
6:56 PM24.1 °F19.9 °F84 %29.93 in0.8 miWest (280°)15.0 mph0.01 inSnowLight Snow
7:04 PM23.0 °F19.4 °F86 %29.89 in1.0 miWest (280°)11.5 mph19.6 mph0.00 inSnowLight Snow
7:20 PM23.0 °F19.4 °F86 %29.89 in5.0 miWNW (290°)12.7 mph0.00 inSnowLight Snow
7:56 PM21.9 °F18.0 °F85 %29.95 in7.0 miWNW (290°)15.0 mph0.00 inOvercast
8:18 PM21.2 °F15.8 °F80 %29.91 in10.0 miWNW (290°)16.1 mph24.2 mphOvercast
8:56 PM21.2 °F17.6 °F86 %29.91 in2.0 miWNW (290°)15.0 mphSnowLight Snow
9:02 PM21.2 °F17.6 °F86 %29.91 in1.0 miWNW (300°)17.3 mph0.00 inSnowLight Snow
9:30 PM19.4 °F12.2 °F74 %29.92 in2.5 miWNW (300°)23.0 mph28.8 mph0.00 inSnowLight Snow
9:37 PM19.4 °F12.2 °F74 %29.93 in5.0 miWNW (300°)24.2 mph29.9 mph0.00 inSnowLight Snow
9:56 PM18.0 °F9.0 °F68 %29.98 in10.0 miWNW (300°)19.6 mph28.8 mph0.00 inOvercast
10:36 PM17.6 °F8.6 °F68 %29.95 in3.0 miNW (310°)21.9 mph32.2 mph0.00 inSnowLight Snow
10:56 PM16.0 °F7.0 °F68 %30.01 in5.0 miWNW (300°)20.7 mph28.8 mph0.00 inSnowLight Snow
11:13 PM15.8 °F6.8 °F68 %29.96 in8.0 miWNW (300°)19.6 mph28.8 mph0.00 inOvercast
11:43 PM14.0 °F8.6 °F79 %29.99 in7.0 miWNW (290°)17.3 mph0.00 inSnowLight Snow
11:56 PM14.0 °F9.0 °F80 %30.05 in3.0 miWNW (290°)15.0 mph23.0 mph0.00 inSnowLight Snow
Hourly data recorded from KDAY, located miles away from New Carlisle, Ohio







STORIES FROM OUR PARTNERS